Starlink 11325

operational
NORAD ID: 61538 Int'l Des: 2024-184 Owner: SPXS Country: US Constellation: starlink
LEOCIRCULAR

About Starlink 11325

Description loading...

Live Position

Loading 3D Globe...

Upcoming Passes

Altitude History

Altitude vs Time

uPlot chart will show altitude changes over time

Two-Line Element Set

1 61538U 24184G 25305.28692127 -.00000284 00000-0 25127-5 0 9991
2 61538 53.1577 148.9912 0001018 89.4990 270.6144 15.69706104 60252
Epoch: Nov 1, 2025 • Age: 35 hours

Current Status

Altitude 367.7 km
Velocity 7.69 km/s
Sub-Earth Point -26.08°S, 39.94°E
Launch Date Oct 15, 2024
Age 1 years
Type internet

Technical Details

Classification Payload
Mass 960.00 kg
Dry Mass 910.00 kg
Total Mass 960.00 kg
Length 0.30 m
Diameter 4.10 m
Span 29.00 m
Shape Box + pan
Manufacturer SPXS
Bus Type Starlink V2MD
Phase Status In Orbit
Owner/State SPXS/US

Large Constellations

Loading constellations...